www.pogodaiklimat.ru
Время
и дата
12:56 27.11
13:56 27.11
14:56 27.11
15:56 27.11
16:56 27.11
17:56 27.11
18:56 27.11
19:56 27.11
20:56 27.11
21:56 27.11
22:56 27.11
23:56 27.11
00:56 28.11
01:56 28.11
02:56 28.11
03:56 28.11
04:56 28.11
05:56 28.11
06:56 28.11
07:56 28.11
08:56 28.11
09:56 28.11
10:56 28.11
11:56 28.11
12:56 28.11
13:56 28.11
14:56 28.11
15:56 28.11
16:56 28.11
17:56 28.11
18:56 28.11
19:56 28.11
20:56 28.11
21:56 28.11
22:56 28.11
23:56 28.11
00:56 29.11
01:56 29.11
02:56 29.11
03:56 29.11
04:56 29.11
05:56 29.11
06:56 29.11
07:56 29.11
08:56 29.11
09:56 29.11
10:56 29.11
11:56 29.11
Ветер
(напр.,м/с)
Видим. Явления Облачность Т
(С)
Тd
(С)
f
(%)
Тe
(С)
Тes
(С)
Комфортность P
(гПа)
Po
(гПа)
Тmin
(С)
Tmax
(С)
R
(мм)
R24
(мм)
S
(см)
штиль 0 16 км ясно +12.8 -7.2 24 +13 +19 1025.4 875.6
штиль 0 16 км ясно +13.9 -7.2 22 +14 +20 1024.7 875.0
СЗ 1 16 км ясно +14.4 -7.2 22 +14 +17 1024.9 875.3
16 км ясно +13.9 -7.2 22 +14 +16 1025.4 875.6 +7.2 +15.0
Ю 1 16 км ясно +5.6 -8.9 34 +4 +4 1027.0 875.6
штиль 0 16 км ясно +2.2 -7.8 48 +2 +2 1028.1 876.1
ЮВ 1 16 км ясно +0.6 -7.2 56 -2 -2 1029.2 876.7
штиль 0 16 км ясно +0.6 -6.1 61 0 0 1029.0 877.0
Ю 2 16 км ясно -1.1 -7.2 63 -6 -6 1029.2 877.3
ЮВ 1 16 км ясно -1.1 -6.7 66 -6 -6 1028.5 877.6 -1.7 +13.9
В 1 16 км ясно -0.6 -6.7 63 -5 -5 1028.5 877.9
С 1 16 км ясно -1.7 -7.2 66 -5 -5 1028.3 877.9
ЮВ 1 16 км ясно -2.2 -7.2 69 -6 -6 1028.0 877.9
В 1 16 км ясно -4.4 -8.3 74 -10 -10 1028.3 877.9
СЗ 1 16 км ясно -3.3 -7.8 71 -7 -7 1028.5 878.2
С 1 16 км ясно -3.9 -7.8 74 -8 -8 1028.6 878.2 -4.4
З 1 16 км ясно -5.6 -8.9 78 -10 -10 1029.9 877.9
ЮВ 1 16 км ясно -6.1 -8.3 84 -12 -12 1030.8 878.2
штиль 0 16 км ясно -4.4 -7.8 77 -5 -5 1031.3 878.7
штиль 0 16 км ясно -0.6 -6.1 66 -1 -1 1031.1 879.0
штиль 0 16 км ясно +5.0 -5.0 48 +5 +5 1030.6 879.0
штиль 0 16 км ясно +8.9 -4.4 39 +9 +11 1030.0 879.0 -6.7 +8.9
нст 1 16 км ясно +10.6 -4.4 35 +10 +13 1029.4 878.7
СВ 1 16 км ясно +12.2 -4.4 31 +12 +16 1028.5 878.2
С 1 16 км ясно +15.0 -4.4 26 +15 +20 1027.6 877.6
штиль 0 16 км ясно +15.6 -4.4 25 +16 +21 1027.1 877.0
штиль 0 16 км ясно +15.6 -5.0 24 +16 +19 1026.6 876.7
штиль 0 16 км ясно +15.6 -5.0 24 +16 +17 1026.7 876.7 +8.9 +16.1
штиль 0 16 км ясно +9.4 -3.9 39 +9 +10 1028.2 877.0
штиль 0 16 км ясно +2.8 -6.1 52 +2 +2 1029.8 877.3
штиль 0 16 км ясно +0.6 -6.7 58 0 0 1029.7 877.3
Ю 1 16 км ясно +0.6 -5.0 66 -4 -4 1029.3 877.3
ЮВ 1 16 км ясно 0.0 -5.0 69 -3 -3 1028.4 877.6
ЮВ 1 16 км ясно +0.6 -5.0 66 -4 -4 1027.8 877.6 -0.6 +15.6
ЮВ 1 16 км ясно -2.2 -6.7 71 -6 -6 1028.1 877.6
штиль 0 16 км ясно -2.8 -7.2 72 -4 -4 1027.7 877.3
Ю 1 16 км ясно -4.4 -8.3 74 -8 -8 1027.3 877.0
штиль 0 16 км ясно -5.0 -8.3 78 -6 -6 1027.2 877.0
штиль 0 16 км ясно -4.4 -8.3 74 -5 -5 1026.5 876.4
ЮВ 1 16 км ясно -2.8 -6.7 74 -7 -7 1025.7 876.1 -5.6 +0.6
СВ 1 16 км ясно -4.4 -7.2 81 -9 -9 1027.0 876.1
З 1 16 км ясно -6.7 -8.9 84 -11 -11 1028.9 876.7
С 1 16 км ясно -4.4 -7.8 77 -8 -8 1029.5 877.3
штиль 0 16 км ясно -1.7 -5.6 75 -3 -3 1029.2 877.3
штиль 0 16 км ясно +2.2 -4.4 62 +2 +2 1028.7 877.3
штиль 0 16 км ясно +8.3 -3.3 44 +8 +10 1027.6 877.3 -6.7 +8.3
СВ 1 16 км ясно +9.4 -3.9 39 +8 +10 1027.9 877.3
штиль 0 16 км ясно +12.8 -4.4 30 +13 +19 1026.3 876.1
Местоположение метеостанции Winnemucca Municipal Airport: широта 40.9019 долгота -117.8072 высота над уровнем моря 1311 м.
В архиве по умолчанию представлена погода в Виннемукке за последние 1-2 суток. Обновление информации о фактической погоде в базе происходит ежечасно! Архивные данные за месяц целиком и за предыдущие месяцы Вы можете получить, выбрав интересующий диапазон дат из раскрывающегося списка и нажав кнопку "Ввод!".
Внимание! Архив погоды МЕТАР в базе сайта по станциям, не включенным в климатический монитор, хранится не более 60 дней. Нет смысла пытаться выбрать более раннюю дату.
*Определитесь, кто Вы:
Внимание! Время в таблицах - местное (без учета летнего времени). Для получения всемирного времени необходимо вычесть поправку, которая равна -8 ч.
Смотрите также архив погоды в соседних городах и на ближайших метеорологических станциях:
Партнеры нашего сайта:      
Пояснения к столбцам:
  • Ветер - указаны скорость ветра в м/с - средняя за 10 мин, порывы в срок и между сроками (в фигурных скобках) и направление, откуда дует ветер: С - северный,
  • СВ - северо-восточный, В - восточный, ЮВ - юго-восточный, Ю - южный, ЮЗ - юго-западный, З - западный, СЗ - северо-западный.
  • Видимость - горизонтальная дальность видимости в метрах или километрах. При видимости от 1 до 10 км при отсутствии осадков обычно наблюдается дымка, при ухудшении видимости до 1 км и менее - туман. В сухую погоду видимость может ухудшаться дымом, пылью или мглою.
  • Явления - указаны атмосферные явления, наблюдавшиеся в срок или в последний час перед сроком; фигурными скобками обозначены явления, наблюдавшиеся между сроками (за 1-3 часа до срока); квадратными скобками обозначены град или гололедные отложения с указанием их диаметра в мм.
  • Облачность - указаны через наклонную черту общая и нижняя облачность в баллах и высота нижней границы облаков в метрах; квадратными скобками обозначены формы облаков: Ci - перистые, Cs - перисто-слоистые, Cc - перисто-кучевые, Ac - высококучевые, As - высокослоистые, Sc - слоисто-кучевые, Ns - слоисто-дождевые, Cu - кучевые, Cb - кучево-дождевые. Подробнее классификацию облаков см. в Атласе облаков (PDF).
  • T - Температура воздуха - температура, измеренная на высоте 2 м над землей.
  • Td - Температура точки росы - температура, при понижении до которой содержащийся в воздухе водяной пар достигнет насыщения.
  • f - Относительная влажность воздуха - влажноcть воздуха, измеренная на высоте 2 м над землей.
  • Te - Эффективная температура - температура, которую ощущает одетый по сезону человек в тени. Характеристика душности погоды. При расчете учитывается влияние влажности воздуха и скорости ветра на теплоощущения человека.
  • Tes - Эффективная температура на солнце - температура, которую ощущает человек, с поправкой на солнечный нагрев. Характеристика знойности погоды. Зависит от высоты солнца над горизонтом, облачности и скорости ветра. Ночью, в пасмурную погоду, а также при ветре 12 м/с и более поправка равна нулю.
  • P - Атмосферное давление - приведенное к уровню моря атмосферное давление.
  • Po - Атмосферное давление - измеренное на уровне метеостанции атмосферное давление.
  • Tmin - Минимальная температура - минимум температуры воздуха на высоте 2 м над землей.
  • Tmax - Максимальная температура - максимум температуры воздуха на высоте 2 м над землей.
  • R - Количество осадков - Количество выпавших осадков за период времени, мм. При наведении курсора мыши на число - период времени, за который выпало указанное количество осадков.
  • R24 - Количество осадков - Количество выпавших осадков за 24 часа, мм.
  • S - Снежный покров - Высота снежного покрова, см. При наведении курсора мыши на число - состояние снежного покрова и степень покрытия местности в баллах.